Change the Weather History Date:

Monday, February 25, 2013

  Actual Average (KOFK) Record (KOFK)
Temperature  
Mean Temperature 18 °F 30 °F  
Max Temperature 32 °F 40 °F 74 °F (1995)
Min Temperature 5 °F 20 °F -7 °F (1924)
Degree Days  
Heating Degree Days 46 35  
Month to date heating degree days 966  
Since 1 July heating degree days 4988  
Cooling Degree Days 0 0  
Month to date cooling degree days 0  
Year to date cooling degree days 0  
Moisture  
Dew Point 20 °F    
Average Humidity 89    
Maximum Humidity 99    
Minimum Humidity 73    
Precipitation  
Precipitation 0.00 in 0.03 in 0.49 in (1945)
Month to date precipitation 0.66  
Year to date precipitation 1.25  
Snow  
Snow 0.00 in 0.20 in - ()
Month to date snowfall 5.0  
Since 1 July snowfall 22.3  
Snow Depth -    
Sea Level Pressure  
Sea Level Pressure 30.03 in    
Wind  
Wind Speed 3 mph (NNE)    
Max Wind Speed 10 mph    
Max Gust Speed -    
Visibility 5 miles    
Events Fog    
T = Trace of Precipitation, MM = Missing Value Source: NWS Daily Summary

Daily Weather History Graph

Daily Weather History Graph

Search for Another Location

Airport or City:

Trip Planner

Search our weather history database for the weather conditions in past years. The results will help you decide how hot, cold, wet, or windy it might be!

Date:

Astronomy

Feb. 25, 2013 Rise Set
Actual Time 7:09 AM CST 6:13 PM CST
Civil Twilight 6:40 AM CST 6:41 PM CST
Nautical Twilight 6:08 AM CST 7:14 PM CST
Astronomical Twilight 5:35 AM CST 7:46 PM CST
Moon 6:29 PM CST (2/25) 6:39 AM CST (2/25)
Length of Visible Light 12h 00m
Length of Day
11h 04m
Full, 100% of the Moon is Illuminated
Feb 25
Full
Feb 25
Full
Mar 4
Last Quarter
Mar 11
New
Mar 19
First Quarter

Hourly Weather History & Observations

Time (CST) Temp. Windchill Dew Point Humidity Pressure Visibility Wind Dir Wind Speed Gust Speed Precip Events Conditions
12:15 AM 22.3 °F - 21.7 °F 98% 30.07 in 3.0 mi Calm Calm - N/A   Overcast
12:35 AM 21.9 °F - 21.0 °F 96% 30.07 in 3.0 mi Calm Calm - N/A   Overcast
12:55 AM 21.2 °F - 20.3 °F 96% 30.06 in 3.0 mi Calm Calm - N/A   Overcast
1:15 AM 20.3 °F - 19.4 °F 96% 30.05 in 2.5 mi Calm Calm - N/A   Mist
1:35 AM 16.7 °F - 15.3 °F 94% 30.05 in 2.0 mi Calm Calm - N/A   Scattered Clouds
1:55 AM 17.6 °F - 16.3 °F 95% 30.07 in 1.2 mi Calm Calm - N/A   Mist
2:15 AM 15.1 °F 9.4 °F 13.5 °F 93% 30.08 in 1.5 mi South 3.5 mph - N/A   Mostly Cloudy
2:35 AM 17.4 °F - 16.3 °F 96% 30.07 in 2.0 mi Calm Calm - N/A   Overcast
2:55 AM 18.3 °F - 17.2 °F 96% 30.08 in 3.0 mi Calm Calm - N/A   Overcast
3:15 AM 18.5 °F - 17.6 °F 96% 30.08 in 3.0 mi Calm Calm - N/A   Overcast
3:35 AM 19.2 °F - 18.1 °F 96% 30.06 in 3.0 mi Calm Calm - N/A   Overcast
3:55 AM 19.4 °F - 18.5 °F 96% 30.05 in 4.0 mi Calm Calm - N/A   Mostly Cloudy
4:15 AM 18.9 °F - 18.0 °F 96% 30.05 in 3.0 mi Calm Calm - N/A   Scattered Clouds
4:35 AM 17.8 °F - 16.5 °F 95% 30.05 in 2.5 mi Calm Calm - N/A   Clear
4:55 AM 16.2 °F - 14.7 °F 94% 30.06 in 2.0 mi Calm Calm - N/A   Clear
5:15 AM 13.8 °F - 12.6 °F 95% 30.07 in 2.0 mi Calm Calm - N/A   Mostly Cloudy
5:35 AM 13.5 °F - 11.7 °F 93% 30.06 in 2.5 mi Calm Calm - N/A   Mostly Cloudy
6:15 AM 10.9 °F - 8.6 °F 90% 30.08 in 3.0 mi Calm Calm - N/A   Clear
6:35 AM 12.6 °F - 10.8 °F 92% 30.08 in 2.0 mi Calm Calm - N/A   Clear
6:55 AM 8.4 °F - 5.4 °F 87% 30.08 in 1.5 mi Calm Calm - N/A   Mist
7:15 AM 7.7 °F - 5.4 °F 90% 30.08 in 1.5 mi Calm Calm - N/A   Mist
7:35 AM 7.0 °F - 4.3 °F 89% 30.08 in 1.0 mi Calm Calm - N/A   Mist
7:55 AM 5.9 °F - 3.4 °F 89% 30.08 in 1.2 mi Calm Calm - N/A   Mist
8:15 AM 7.7 °F - 5.4 °F 90% 30.08 in 0.2 mi Calm Calm - N/A Fog Light Freezing Fog
8:35 AM 9.7 °F - 7.5 °F 91% 30.09 in 1.2 mi Calm Calm - N/A   Scattered Clouds
8:55 AM 12.4 °F - 10.6 °F 92% 30.09 in 2.0 mi Calm Calm - N/A   Overcast
9:15 AM 15.1 °F - 13.5 °F 93% 30.09 in 2.5 mi Calm Calm - N/A   Overcast
9:35 AM 17.2 °F - 15.8 °F 94% 30.08 in 2.5 mi Calm Calm - N/A   Overcast
9:55 AM 21.4 °F - 20.5 °F 96% 30.08 in 3.0 mi Calm Calm - N/A   Overcast
10:15 AM 23.9 °F - 23.2 °F 97% 30.08 in 4.0 mi Calm Calm - N/A   Overcast
10:35 AM 25.7 °F - 25.0 °F 97% 30.08 in 4.0 mi Calm Calm - N/A   Overcast
10:55 AM 28.9 °F 22.8 °F 28.4 °F 98% 30.08 in 5.0 mi NNW 5.8 mph - N/A   Scattered Clouds
11:15 AM 29.3 °F 23.2 °F 28.8 °F 98% 30.08 in 7.0 mi North 5.8 mph - N/A   Clear
11:35 AM 29.5 °F 23.4 °F 29.1 °F 99% 30.08 in 7.0 mi NNW 5.8 mph - N/A   Clear
11:55 AM 30.2 °F 23.4 °F 28.4 °F 93% 30.07 in 7.0 mi North 6.9 mph - N/A   Clear
12:15 PM 32.0 °F 24.2 °F 26.2 °F 79% 30.05 in 7.0 mi North 9.2 mph - N/A   Clear
12:35 PM 32.0 °F 23.6 °F 24.3 °F 73% 30.04 in 10.0 mi North 10.4 mph - N/A   Clear
12:55 PM 32.0 °F 24.2 °F 24.8 °F 75% 30.04 in 10.0 mi North 9.2 mph - N/A   Clear
1:15 PM 32.0 °F 24.2 °F 25.0 °F 75% 30.03 in 10.0 mi North 9.2 mph - N/A   Clear
1:35 PM 32.0 °F 23.6 °F 25.0 °F 75% 30.02 in 10.0 mi North 10.4 mph - N/A   Clear
1:55 PM 32.0 °F 24.2 °F 24.8 °F 75% 30.01 in 10.0 mi North 9.2 mph - N/A   Clear
2:15 PM 32.0 °F 23.6 °F 25.5 °F 77% 30.01 in 10.0 mi NNW 10.4 mph - N/A   Clear
2:35 PM 32.0 °F 25.6 °F 25.0 °F 75% 30.02 in 10.0 mi North 6.9 mph - N/A   Clear
2:55 PM 32.0 °F 26.4 °F 25.0 °F 75% 30.02 in 10.0 mi North 5.8 mph - N/A   Scattered Clouds
3:15 PM 32.0 °F 24.8 °F 25.0 °F 75% 30.01 in 10.0 mi North 8.1 mph - N/A   Mostly Cloudy
3:35 PM 32.0 °F 26.4 °F 24.8 °F 75% 30.01 in 10.0 mi North 5.8 mph - N/A   Scattered Clouds
3:55 PM 32.0 °F 24.8 °F 24.8 °F 75% 30.00 in 10.0 mi North 8.1 mph - N/A   Clear
4:15 PM 32.0 °F 25.6 °F 25.0 °F 75% 30.00 in 10.0 mi North 6.9 mph - N/A   Clear
4:35 PM 31.5 °F 24.2 °F 25.0 °F 77% 30.00 in 10.0 mi North 8.1 mph - N/A   Clear
4:55 PM 30.9 °F 25.2 °F 24.8 °F 78% 30.00 in 10.0 mi NNE 5.8 mph - N/A   Clear
5:15 PM 30.0 °F 23.2 °F 24.3 °F 79% 29.99 in 10.0 mi NNE 6.9 mph - N/A   Clear
5:35 PM 29.3 °F 23.2 °F 23.7 °F 80% 29.99 in 10.0 mi North 5.8 mph - N/A   Clear
5:55 PM 28.9 °F 22.8 °F 23.4 °F 80% 29.98 in 10.0 mi NNE 5.8 mph - N/A   Clear
6:15 PM 24.6 °F 20.3 °F 20.8 °F 86% 30.00 in 10.0 mi ENE 3.5 mph - N/A   Clear
6:35 PM 23.9 °F 19.5 °F 20.7 °F 87% 29.99 in 10.0 mi NNE 3.5 mph - N/A   Clear
6:55 PM 22.8 °F 16.7 °F 20.1 °F 89% 30.00 in 10.0 mi NE 4.6 mph - N/A   Scattered Clouds
7:15 PM 25.2 °F 19.5 °F 22.6 °F 90% 30.00 in 7.0 mi NNE 4.6 mph - N/A   Overcast
7:35 PM 27.1 °F 20.7 °F 24.8 °F 91% 29.99 in 7.0 mi NNE 5.8 mph - N/A   Overcast
7:55 PM 28.2 °F 20.2 °F 25.2 °F 88% 29.98 in 5.0 mi NE 8.1 mph - N/A   Overcast
8:15 PM 28.0 °F 20.8 °F 25.3 °F 90% 29.97 in 5.0 mi NE 6.9 mph - N/A   Overcast
8:35 PM 27.5 °F 20.2 °F 24.8 °F 90% 29.96 in 5.0 mi NNE 6.9 mph - N/A   Overcast
8:55 PM 27.3 °F 17.7 °F 24.8 °F 90% 29.96 in 5.0 mi NE 10.4 mph - N/A   Overcast
9:15 PM 27.0 °F 18.0 °F 25.2 °F 93% 29.95 in 5.0 mi NNE 9.2 mph - N/A   Overcast
9:35 PM 26.6 °F 17.5 °F 24.8 °F 93% 29.94 in 4.0 mi NE 9.2 mph - N/A   Overcast
9:55 PM 26.2 °F 17.1 °F 24.8 °F 94% 29.95 in 4.0 mi NE 9.2 mph - N/A   Overcast
10:15 PM 26.1 °F 16.2 °F 25.2 °F 96% 29.95 in 3.0 mi NE 10.4 mph - N/A   Overcast
10:35 PM 25.7 °F 17.1 °F 25.2 °F 98% 29.94 in 3.0 mi NE 8.1 mph - N/A   Overcast
10:55 PM 26.1 °F 16.2 °F 25.3 °F 97% 29.95 in 3.0 mi NNE 10.4 mph - N/A   Overcast
11:15 PM 25.5 °F 16.2 °F 25.0 °F 98% 29.95 in 3.0 mi NNE 9.2 mph - N/A   Overcast
11:35 PM 25.7 °F 18.0 °F 25.2 °F 98% 29.95 in 3.0 mi NE 6.9 mph - N/A   Overcast
11:55 PM 26.1 °F 18.4 °F 25.3 °F 97% 29.95 in 4.0 mi ENE 6.9 mph - N/A   Overcast